Date,TemperatureHighF,TemperatureAvgF,TemperatureLowF,DewpointHighF,DewpointAvgF,DewpointLowF,HumidityHigh,HumidityAvg,HumidityLow,PressureMaxIn,PressureMinIn,WindSpeedMaxMPH,WindSpeedAvgMPH,GustSpeedMaxMPH,PrecipitationSumIn
2013-1-1,31.7,20.4,8.9,13.0,5.1,-2.0,86,56,30,30.44,30.25,6,1,13,0.00
2013-1-2,32.7,21.2,9.4,9.0,5.2,1.0,70,52,28,30.53,30.34,9,1,12,0.00
2013-1-3,37.9,22.3,11.1,5.0,-1.4,-12.0,64,40,12,30.55,30.41,4,0,7,0.00
2013-1-4,47.9,28.0,12.6,11.0,5.2,0.0,66,43,14,30.43,30.19,4,0,7,0.00
2013-1-5,40.9,26.5,13.6,13.0,9.4,5.0,72,51,28,30.45,30.22,6,1,10,0.00
2013-1-6,49.4,28.6,10.1,13.0,2.5,-15.0,68,41,7,30.44,30.08,4,0,4,0.00
2013-1-7,52.4,36.2,23.4,10.0,6.2,-2.0,52,32,11,30.10,29.85,3,0,7,0.00
2013-1-8,52.1,39.9,22.5,17.0,12.3,3.0,61,35,19,30.23,29.83,14,2,20,0.00
2013-1-9,61.3,37.1,21.2,18.0,12.9,7.0,69,42,12,30.37,30.04,5,1,10,0.00
2013-1-10,47.2,36.5,25.5,19.0,12.1,5.0,63,38,21,30.03,29.50,9,1,11,0.00
2013-1-11,42.3,28.4,13.7,25.0,14.0,-7.0,86,59,16,29.85,29.28,13,2,23,0.00
2013-1-12,21.1,8.5,2.0,5.0,0.8,-7.0,84,72,29,30.37,29.86,7,1,13,0.00
2013-1-13,14.6,6.8,0.0,2.0,-0.9,-4.0,83,72,53,30.51,30.37,4,1,9,0.00
2013-1-14,15.3,7.1,0.4,2.0,-1.3,-6.0,82,69,54,30.54,30.40,6,0,10,0.00
2013-1-15,30.8,17.6,-1.9,11.0,1.0,-7.0,80,51,31,30.52,30.41,4,1,7,0.00
2013-1-16,51.7,34.3,19.6,18.0,15.1,10.0,70,48,25,30.45,30.29,4,1,8,0.00
2013-1-17,51.6,32.4,18.4,17.0,14.2,10.0,78,52,20,30.56,30.32,4,0,7,0.00
2013-1-18,58.2,39.5,20.1,9.0,0.6,-14.0,57,26,5,30.33,30.09,8,1,15,0.00
2013-1-19,60.7,45.4,28.9,5.0,-3.3,-30.0,33,15,2,30.20,30.08,11,2,25,0.00
2013-1-20,47.2,34.7,23.5,15.0,8.6,1.0,64,36,18,30.31,30.08,4,1,14,0.00
2013-1-21,56.6,38.4,15.9,13.0,1.5,-23.0,79,34,4,30.32,30.10,14,3,22,0.00
2013-1-22,64.0,52.4,31.4,-3.0,-55.7,-99.9,22,3,1,30.10,29.94,10,2,25,0.00
2013-1-23,55.4,41.1,31.6,9.0,-2.8,-15.0,27,16,8,30.15,30.05,3,0,6,0.00
2013-1-24,65.8,47.7,27.7,25.0,10.4,-15.0,39,25,4,30.13,29.92,14,3,26,0.00
2013-1-25,58.4,43.1,30.6,26.0,23.5,21.0,70,49,27,30.08,29.95,6,1,8,0.00
2013-1-26,53.3,40.3,27.2,35.0,26.1,21.0,82,60,32,30.03,29.74,3,0,5,0.00
2013-1-27,57.7,42.2,28.6,36.0,28.7,16.0,92,63,28,29.75,29.65,3,0,8,0.00
2013-1-28,56.2,38.9,26.4,30.0,24.0,16.0,91,60,21,29.73,29.44,12,2,23,0.00
2013-1-29,30.2,24.9,18.8,24.0,14.2,5.0,90,67,35,30.11,29.72,6,1,11,0.00
2013-1-30,39.0,29.5,14.8,14.0,8.3,-1.0,75,43,29,30.12,29.98,12,3,23,0.00
2013-1-31,47.2,37.9,28.3,20.0,14.2,10.0,64,40,22,30.16,29.99,16,2,28,0.00
2013-2-1,48.3,35.4,23.3,21.0,15.9,11.0,71,48,23,30.27,30.09,14,2,21,0.00
2013-2-2,57.9,37.7,21.0,17.0,11.7,-4.0,72,42,8,30.36,30.25,9,1,18,0.00
2013-2-3,53.3,38.4,22.2,17.0,8.0,-5.0,67,36,10,30.30,29.93,7,1,15,0.00
2013-2-4,51.3,38.8,26.4,13.0,6.9,-2.0,50,29,12,30.01,29.85,13,2,23,0.00
2013-2-5,60.7,43.3,29.2,19.0,13.6,10.0,53,33,14,30.05,29.80,7,1,12,0.00
2013-2-6,54.7,40.1,28.2,33.0,23.2,18.0,92,56,24,30.08,29.76,5,1,15,0.00
2013-2-7,46.8,35.2,25.8,32.0,22.8,13.0,92,65,29,30.19,30.08,6,1,10,0.00
2013-2-8,51.2,36.4,24.3,18.0,14.9,12.0,70,44,22,30.08,29.72,7,1,9,0.00
2013-2-9,35.8,29.6,23.5,28.0,19.8,12.0,88,68,49,29.75,29.58,5,1,15,0.00
2013-2-10,34.6,26.6,21.1,20.0,14.4,7.0,86,63,33,30.20,29.68,6,1,12,0.00
2013-2-11,27.3,22.0,15.9,16.0,14.2,12.0,88,73,56,30.23,30.13,6,1,8,0.00
2013-2-12,40.4,27.4,12.8,11.0,1.4,-16.0,82,41,9,30.27,30.17,7,1,9,0.00
2013-2-13,46.7,35.0,21.1,13.0,9.0,5.0,57,36,18,30.18,30.01,16,4,32,0.00
2013-2-14,39.4,27.3,20.2,22.0,16.6,9.0,87,67,28,30.41,30.05,10,1,15,0.00
2013-2-15,38.6,25.4,13.4,17.0,13.3,9.0,87,63,31,30.51,30.40,5,1,9,0.00
2013-2-16,54.9,42.5,25.7,13.0,9.9,6.0,55,29,16,30.40,29.96,13,3,25,0.00
2013-2-17,60.0,42.4,25.5,16.0,-9.8,-99.9,51,24,1,29.96,29.51,22,3,30,0.00
2013-2-18,39.8,31.1,20.0,20.0,8.3,-4.0,82,44,16,30.18,29.75,14,2,24,0.00
2013-2-19,41.3,28.3,16.1,13.0,7.2,4.0,65,43,24,30.18,29.91,5,1,12,0.00
2013-2-20,34.4,25.9,20.1,26.0,17.7,13.0,91,72,47,29.92,29.72,6,1,8,0.00
2013-2-21,26.0,20.9,15.8,20.0,16.2,12.0,88,82,69,30.10,29.84,6,1,8,0.00
2013-2-22,33.5,23.0,12.2,20.0,14.7,9.0,87,72,52,30.17,30.04,3,0,5,0.00
2013-2-23,46.1,30.9,17.0,27.0,15.7,7.0,89,56,29,30.04,29.71,6,2,11,0.00
2013-2-24,28.8,26.0,23.1,26.0,23.6,20.0,92,90,87,30.25,29.79,10,2,18,0.00
2013-2-25,37.6,24.0,8.8,21.0,14.2,6.0,89,69,33,30.26,30.00,4,1,9,0.00
2013-2-26,31.1,25.5,15.7,25.0,18.3,11.0,86,74,59,30.32,29.97,12,2,16,0.00
2013-2-27,37.4,25.9,12.8,15.0,9.9,4.0,82,54,26,30.41,30.31,6,1,10,0.00
2013-2-28,41.2,29.2,13.7,13.0,8.4,4.0,74,45,24,30.45,30.33,15,3,26,0.00
2013-3-1,49.2,37.3,25.7,22.0,17.5,12.0,67,47,29,30.39,30.28,11,1,24,0.00
2013-3-2,59.9,44.6,28.5,26.0,21.8,18.0,71,44,21,30.35,30.00,11,1,17,0.00
2013-3-3,61.6,48.5,35.4,26.0,20.2,14.0,62,36,16,29.99,29.57,11,2,21,0.00
2013-3-4,48.4,30.3,19.3,27.0,21.9,13.0,88,73,37,30.33,29.59,8,2,17,0.00
2013-3-5,39.7,26.3,10.7,19.0,14.0,7.0,84,62,40,30.48,30.31,7,1,10,0.00
2013-3-6,59.1,36.6,18.8,23.0,18.4,11.0,87,56,15,30.30,29.91,6,1,8,0.00
2013-3-7,63.7,45.6,27.9,24.0,21.3,15.0,76,44,15,29.98,29.82,6,1,10,0.00
2013-3-8,48.3,37.6,29.5,31.0,27.5,22.0,83,68,45,29.92,29.69,5,1,9,0.00
2013-3-9,35.1,30.6,23.5,31.0,27.1,18.0,93,87,74,30.19,29.65,7,2,15,0.00
2013-3-10,42.1,29.9,14.1,23.0,15.8,10.0,86,59,35,30.32,30.16,5,1,9,0.00
2013-3-11,53.0,40.0,28.0,29.0,20.7,13.0,90,52,23,30.16,29.90,16,3,24,0.00
2013-3-12,37.2,30.4,24.4,29.0,25.6,21.0,92,83,66,30.37,30.16,4,0,8,0.00
2013-3-13,63.7,46.2,29.0,33.0,24.7,16.0,88,50,17,30.36,30.19,12,2,16,0.00
2013-3-14,70.0,54.6,37.5,26.0,19.3,2.0,64,30,7,30.22,30.01,10,1,16,0.00
2013-3-15,72.4,60.5,46.9,23.0,18.1,9.0,36,21,9,30.01,29.66,8,2,17,0.00
2013-3-16,53.0,46.1,40.1,34.0,29.3,21.0,70,54,30,29.81,29.67,6,2,10,0.00
2013-3-17,58.0,43.7,30.2,28.0,20.7,6.0,77,44,13,29.79,29.48,15,4,27,0.00
2013-3-18,49.0,39.2,26.2,18.0,11.0,6.0,60,33,19,29.96,29.79,18,4,25,0.00
2013-3-19,52.3,41.4,30.3,19.0,-4.1,-99.9,57,24,1,30.36,29.94,15,4,22,0.00
2013-3-20,53.2,37.5,20.6,23.0,16.8,13.0,78,47,23,30.36,29.76,8,1,12,0.00
2013-3-21,57.4,44.2,34.1,28.0,18.3,4.0,61,37,17,29.77,29.43,17,3,30,0.00
2013-3-22,46.2,33.8,25.8,27.0,20.0,11.0,91,60,32,29.96,29.61,11,2,19,0.00
2013-3-23,26.3,19.0,12.9,24.0,15.9,10.0,91,87,83,30.42,29.96,9,2,13,0.00
2013-3-24,25.0,16.6,3.3,18.0,11.3,0.0,89,80,67,30.49,30.37,5,1,10,0.00
2013-3-25,33.2,22.3,9.8,16.0,11.4,7.0,88,66,35,30.51,30.39,3,1,8,0.00
2013-3-26,52.2,33.8,16.1,29.0,18.2,11.0,82,57,25,30.39,30.02,5,1,7,0.00
2013-3-27,54.3,40.1,26.9,35.0,28.0,22.0,84,64,40,30.12,30.02,8,1,9,0.00
2013-3-28,63.0,45.7,30.2,33.0,28.5,22.0,89,58,21,30.11,30.01,5,1,10,0.00
2013-3-29,64.9,49.1,34.5,32.0,28.8,23.0,78,50,21,30.07,29.95,13,2,21,0.00
2013-3-30,66.1,50.4,36.6,37.0,27.9,18.0,78,47,17,30.12,29.88,11,2,19,0.00
2013-3-31,69.3,52.1,34.5,35.0,20.5,-16.0,84,40,3,30.11,29.84,10,2,13,0.00
2013-4-1,50.9,42.7,31.6,34.0,29.1,22.0,83,60,36,30.06,29.91,11,3,14,0.00
2013-4-2,40.1,37.3,35.1,34.0,32.9,31.0,92,84,73,30.15,30.04,6,1,9,0.00
2013-4-3,59.5,45.9,35.9,37.0,31.8,24.0,93,64,26,30.18,30.04,6,1,13,0.00
2013-4-4,67.9,53.1,34.7,31.0,26.0,18.0,77,40,15,30.10,29.88,6,1,11,0.00
2013-4-5,70.3,57.1,44.0,34.0,24.4,16.0,56,32,13,29.87,29.51,15,2,34,0.00
2013-4-6,62.5,53.9,39.8,32.0,22.7,18.0,51,31,19,29.78,29.69,14,2,28,0.00
2013-4-7,62.1,52.3,39.8,32.0,26.2,19.0,71,40,20,29.71,29.54,15,3,22,0.00
2013-4-8,62.6,44.8,26.9,33.0,28.4,24.0,90,56,28,29.74,29.28,18,3,23,0.00
2013-4-9,26.7,17.0,11.6,24.0,13.1,7.0,89,84,79,30.44,29.77,10,3,15,0.00
2013-4-10,26.9,17.9,7.2,16.0,10.7,3.0,85,74,61,30.45,30.12,5,1,9,0.00
2013-4-11,55.3,37.6,20.9,33.0,25.1,15.0,83,63,33,30.11,29.88,9,2,21,0.00
2013-4-12,57.7,41.5,30.6,33.0,29.1,13.0,87,65,17,29.95,29.83,10,2,17,0.00
2013-4-13,66.7,50.4,29.6,32.0,21.8,8.0,90,45,11,29.92,29.33,13,2,21,0.00
2013-4-14,49.9,43.3,37.3,38.0,17.1,-1.0,88,39,13,29.72,29.38,15,5,30,0.00
2013-4-15,38.5,27.8,22.8,26.0,22.7,11.0,91,83,32,30.14,29.68,10,2,13,0.00
2013-4-16,32.9,28.1,22.9,28.0,24.5,20.0,91,86,79,30.15,29.97,7,2,14,0.00
2013-4-17,29.6,25.9,20.0,27.0,23.5,18.0,92,90,89,30.31,30.02,11,3,16,0.00
2013-4-18,36.4,26.3,15.3,19.0,14.5,6.0,89,65,32,30.35,30.27,7,2,15,0.00
2013-4-19,50.8,41.2,24.9,25.0,16.8,10.0,70,39,25,30.32,29.96,11,2,17,0.00
2013-4-20,57.5,47.0,37.7,35.0,28.2,22.0,65,49,31,29.96,29.82,7,2,11,0.00
2013-4-21,61.7,51.3,38.4,31.0,22.2,17.0,62,35,18,30.00,29.85,10,2,16,0.00
2013-4-22,53.5,34.6,22.8,34.0,26.0,20.0,90,73,43,30.36,29.78,9,2,22,0.00
2013-4-23,33.5,25.1,20.5,21.0,18.2,16.0,91,76,53,30.42,30.30,6,1,7,0.00
2013-4-24,53.9,38.2,19.8,22.0,14.6,7.0,81,44,15,30.36,30.21,7,2,18,0.00
2013-4-25,63.2,48.0,28.1,29.0,17.1,7.0,68,35,11,30.22,29.85,6,1,9,0.00
2013-4-26,65.5,53.7,35.1,26.0,18.3,11.0,67,29,13,30.12,29.93,9,1,11,0.00
2013-4-27,72.9,58.1,36.6,25.0,15.4,4.0,60,25,7,30.11,29.88,8,2,17,0.00
2013-4-28,78.2,63.7,41.7,31.0,21.5,15.0,49,23,10,29.88,29.60,11,2,15,0.00
2013-4-29,77.6,65.7,47.2,34.0,23.9,11.0,59,25,8,29.71,29.36,14,2,18,0.00
2013-4-30,62.8,50.4,37.6,38.0,32.6,20.0,87,53,19,29.90,29.38,9,2,15,0.00
2013-5-1,37.3,30.1,23.1,35.0,27.9,20.0,93,91,88,30.76,29.92,8,2,14,0.00
2013-5-2,44.1,33.0,19.6,25.0,20.2,16.0,91,63,33,30.87,30.53,5,0,9,0.00
2013-5-3,59.0,45.3,26.9,27.0,22.1,13.0,82,46,18,30.53,30.08,8,1,13,0.00
2013-5-4,57.9,48.2,33.9,31.0,27.0,22.0,76,46,30,30.15,30.02,7,2,13,0.00
2013-5-5,55.4,46.5,36.6,33.0,26.0,22.0,62,46,31,30.15,30.02,6,1,9,0.00
2013-5-6,63.2,52.5,39.7,38.0,32.0,29.0,70,47,30,30.06,29.80,6,1,11,0.00
2013-5-7,68.5,54.7,42.1,46.0,36.5,29.0,89,55,24,29.86,29.72,9,1,12,0.00
2013-5-8,59.1,47.8,41.1,44.0,40.9,38.0,91,78,46,30.02,29.80,9,2,18,0.00
2013-5-9,55.1,47.5,42.4,45.0,41.5,37.0,92,80,58,30.14,30.01,10,1,15,0.00
2013-5-10,64.6,51.1,34.8,43.0,36.4,32.0,91,61,31,30.21,30.13,11,2,14,0.00
2013-5-11,66.6,56.0,43.0,40.0,36.2,31.0,77,49,27,30.29,30.09,11,1,14,0.00
2013-5-12,77.5,65.2,49.0,37.0,32.7,29.0,60,33,18,30.09,29.89,6,1,13,0.00
2013-5-13,83.8,69.6,52.7,43.0,36.3,31.0,57,33,16,29.93,29.76,7,1,11,0.00
2013-5-14,84.2,69.8,55.1,44.0,36.6,27.0,54,32,13,29.76,29.64,16,3,22,0.00
2013-5-15,79.9,64.8,53.9,49.0,40.6,35.0,69,44,21,29.74,29.61,15,2,21,0.00
2013-5-16,78.8,65.4,49.2,48.0,39.4,28.0,80,45,17,29.70,29.56,9,1,13,0.00
2013-5-17,85.9,69.4,48.3,43.0,25.9,0.0,73,30,4,29.64,29.45,10,2,14,0.00
2013-5-18,76.3,63.2,50.1,38.0,28.7,17.0,52,29,11,29.62,29.48,10,1,20,0.00
2013-5-19,68.5,59.5,50.6,38.0,28.8,19.0,61,34,15,29.65,29.52,15,3,20,0.00
2013-5-20,63.8,52.5,47.6,47.0,39.8,30.0,85,64,37,29.90,29.64,9,1,18,0.00
2013-5-21,70.0,55.4,39.1,41.0,33.4,25.0,91,50,19,29.95,29.74,8,2,16,0.00
2013-5-22,76.2,60.3,43.6,48.0,35.8,31.0,75,44,21,29.86,29.66,12,2,16,0.00
2013-5-23,69.5,58.7,46.2,48.0,45.1,43.0,88,63,41,29.90,29.73,4,1,11,0.00
2013-5-24,83.1,65.6,45.7,53.0,39.4,14.0,89,48,8,29.80,29.64,9,1,18,0.00
2013-5-25,86.2,70.9,50.6,52.0,28.9,-99.9,82,34,1,29.73,29.55,5,1,10,0.00
2013-5-26,83.6,69.6,52.6,42.0,28.7,6.0,57,26,5,29.63,29.54,9,1,20,0.00
2013-5-27,80.4,67.0,49.8,39.0,26.2,9.0,60,27,7,29.59,29.45,6,1,12,0.00
2013-5-28,79.8,64.8,48.0,46.0,33.6,18.0,58,35,10,29.57,29.29,7,1,16,0.00
2013-5-29,63.4,56.3,48.5,51.0,42.6,28.0,91,63,32,29.55,29.36,13,1,18,0.00
2013-5-30,67.4,58.2,45.4,35.0,27.8,18.0,65,34,16,29.71,29.52,20,4,28,0.00
2013-5-31,69.8,60.4,44.6,32.0,16.6,1.0,57,21,7,29.84,29.68,18,4,26,0.00
2013-6-1,68.3,57.7,42.7,38.0,34.3,19.0,76,44,21,30.04,29.84,8,1,10,0.00
2013-6-2,83.8,63.7,42.0,43.0,33.9,23.0,78,39,11,30.03,29.59,5,0,5,0.00
2013-6-3,88.3,71.8,47.7,41.0,27.5,7.0,66,27,5,29.64,29.44,17,2,21,0.00
2013-6-4,71.8,60.6,49.3,52.0,44.6,27.0,89,57,25,30.00,29.63,6,1,16,0.00
2013-6-5,57.1,51.3,46.4,47.0,45.3,42.0,90,80,68,30.06,29.99,2,0,7,0.00
2013-6-6,76.0,61.3,41.3,47.0,40.4,33.0,91,53,22,30.05,29.86,3,1,10,0.00
2013-6-7,78.2,64.3,48.5,46.0,41.2,33.0,81,46,22,29.91,29.56,7,0,14,0.00
2013-6-8,75.1,66.6,54.9,49.0,42.0,38.0,59,42,29,29.80,29.52,9,2,16,0.00
2013-6-9,89.3,69.8,47.1,47.0,39.0,25.0,80,41,11,29.83,29.65,3,0,8,0.00
2013-6-10,94.7,77.8,55.7,45.0,35.3,24.0,60,26,9,29.66,29.49,5,0,10,0.00
2013-6-11,95.9,80.3,61.8,42.0,10.2,-99.9,46,18,1,29.60,29.39,16,2,27,0.00
2013-6-12,90.8,76.3,56.6,49.0,30.3,21.0,45,20,9,29.77,29.61,7,1,11,0.00
2013-6-13,81.5,70.4,56.8,60.0,51.8,37.0,85,55,24,29.78,29.58,14,1,14,0.00
2013-6-14,88.1,77.2,65.1,46.0,38.5,29.0,49,26,12,29.68,29.49,6,1,16,0.00
2013-6-15,79.3,68.3,55.0,51.0,47.0,45.0,71,48,33,29.78,29.60,5,1,10,0.00
2013-6-16,83.2,66.4,55.5,51.0,45.6,33.0,75,51,21,29.89,29.77,9,0,16,0.00
2013-6-17,78.4,65.9,49.6,49.0,43.4,33.0,81,48,23,29.95,29.82,5,0,15,0.00
2013-6-18,81.9,67.8,54.3,53.0,48.6,37.0,85,54,20,29.89,29.61,9,1,13,0.00
2013-6-19,92.4,74.2,52.1,50.0,36.0,6.0,82,36,4,29.72,29.36,6,1,10,0.00
2013-6-20,88.6,73.2,54.8,52.0,31.4,19.0,65,25,9,29.61,29.44,7,0,10,0.00
2013-6-21,92.2,74.7,55.2,49.0,34.5,7.0,68,30,4,29.61,29.44,5,0,14,0.00
2013-6-22,81.5,70.2,55.5,49.0,45.7,40.0,72,44,23,29.63,29.45,6,1,11,0.00
2013-6-23,83.1,66.5,50.9,56.0,46.4,38.0,83,54,21,29.77,29.55,11,1,17,0.00
2013-6-24,86.5,71.1,55.4,51.0,41.1,23.0,73,41,10,29.69,29.48,4,0,7,0.00
2013-6-25,89.7,74.6,53.9,46.0,35.4,24.0,56,28,11,29.71,29.52,4,1,9,0.00
2013-6-26,94.8,78.8,56.9,46.0,37.0,27.0,63,28,9,29.78,29.65,3,0,11,0.00
2013-6-27,94.2,80.1,61.9,49.0,40.3,32.0,54,28,11,29.86,29.72,5,1,10,0.00
2013-6-28,89.7,76.5,61.4,58.0,49.6,32.0,83,41,14,29.95,29.75,6,1,22,0.00
2013-6-29,81.1,70.4,58.9,57.0,53.5,46.0,85,57,34,29.91,29.81,9,0,13,0.00
2013-6-30,74.4,68.2,61.4,57.0,54.0,50.0,77,61,48,29.93,29.85,5,1,8,0.00
2013-7-1,78.2,66.9,53.4,56.0,52.1,48.0,89,62,38,30.04,29.93,7,1,19,0.00
2013-7-2,81.1,68.1,52.7,56.0,49.8,42.0,95,58,28,30.01,29.86,6,1,9,0.00
2013-7-3,86.6,72.0,52.8,52.0,45.9,41.0,86,45,20,29.87,29.62,10,1,23,0.00
2013-7-4,88.6,75.4,58.1,54.0,45.5,41.0,72,37,20,29.68,29.57,9,1,20,0.00
2013-7-5,89.2,73.5,61.3,54.0,49.7,44.0,61,45,23,29.61,29.51,6,1,22,0.00
2013-7-6,87.1,74.8,65.0,62.0,49.5,43.0,78,43,21,29.66,29.54,6,1,12,0.00
2013-7-7,81.1,72.2,60.4,57.0,52.4,48.0,77,52,34,29.76,29.65,3,0,8,0.00
2013-7-8,92.2,76.8,63.7,53.0,48.1,39.0,62,39,17,29.77,29.67,8,1,29,0.00
2013-7-9,92.0,76.9,61.0,52.0,45.5,34.0,66,38,13,29.85,29.74,6,0,17,0.00
2013-7-10,85.9,74.3,59.5,57.0,50.8,42.0,70,45,30,29.88,29.70,8,0,10,0.00
2013-7-11,97.2,76.9,59.0,57.0,51.4,39.0,83,47,14,29.77,29.50,14,1,21,0.00
2013-7-12,91.5,72.6,62.2,62.0,55.1,47.0,90,58,23,29.73,29.57,7,1,15,0.00
2013-7-13,87.7,70.3,59.0,63.0,58.7,53.0,95,72,31,29.89,29.71,8,0,24,0.00
2013-7-14,77.9,67.8,56.7,62.0,58.2,55.0,95,74,49,29.97,29.81,5,1,12,0.00
2013-7-15,75.6,66.8,62.4,64.0,58.6,47.0,93,77,53,29.92,29.83,6,0,11,0.00
2013-7-16,81.0,68.7,53.1,56.0,50.4,46.0,90,55,31,29.94,29.86,3,0,9,0.00
2013-7-17,89.4,73.3,54.7,56.0,51.9,47.0,88,51,26,29.95,29.78,3,0,6,0.00
2013-7-18,90.4,75.4,60.9,57.0,51.9,46.0,78,46,24,29.84,29.71,9,1,15,0.00
2013-7-19,81.1,73.0,64.5,58.0,54.8,50.0,72,54,36,29.85,29.76,5,1,13,0.00
2013-7-20,89.5,71.6,56.7,56.0,52.1,46.0,85,55,23,29.76,29.60,11,1,19,0.00
2013-7-21,88.0,72.9,56.0,59.0,55.1,51.0,85,56,30,29.68,29.59,6,1,12,0.00
2013-7-22,92.5,78.1,60.5,58.0,47.8,38.0,76,38,15,29.66,29.57,7,1,11,0.00
2013-7-23,88.4,75.6,60.0,57.0,47.1,36.0,59,38,22,29.80,29.59,6,1,9,0.00
2013-7-24,79.0,71.9,63.3,61.0,54.3,44.0,76,55,32,29.86,29.74,7,1,17,0.00
2013-7-25,77.2,64.6,58.5,59.0,53.8,50.0,87,70,40,30.02,29.77,5,1,12,0.00
2013-7-26,82.9,69.8,53.2,54.0,48.8,42.0,88,52,24,30.07,29.87,4,0,13,0.00
2013-7-27,76.7,65.7,53.9,60.0,53.0,48.0,92,66,45,29.90,29.76,8,1,10,0.00
2013-7-28,68.7,62.0,59.0,61.0,58.1,56.0,94,87,68,29.83,29.70,3,0,6,0.00
2013-7-29,70.9,62.2,56.8,62.0,56.8,53.0,92,83,57,29.97,29.73,2,0,6,0.00
2013-7-30,86.6,68.4,52.4,57.0,51.4,45.0,90,60,24,30.02,29.90,32,1,32,0.00
2013-7-31,88.8,73.6,59.2,55.0,49.9,41.0,77,48,19,30.05,29.83,3,0,8,0.00
2013-8-1,90.6,73.6,58.6,57.0,50.8,39.0,83,49,16,29.92,29.66,4,0,10,0.00
2013-8-2,90.5,74.5,58.4,55.0,49.4,40.0,76,45,19,29.75,29.64,4,0,9,0.00
2013-8-3,86.8,71.2,58.7,59.0,53.8,46.0,91,59,24,29.99,29.70,8,1,13,0.00
2013-8-4,86.0,70.5,55.4,57.0,52.1,45.0,85,56,25,29.91,29.81,6,0,13,0.00
2013-8-5,85.0,71.8,57.1,60.0,50.8,46.0,82,51,26,29.82,29.73,4,0,14,0.00
2013-8-6,88.2,71.7,58.9,56.0,47.5,37.0,74,46,18,29.80,29.68,15,1,20,0.00
2013-8-7,73.6,66.1,59.4,55.0,51.4,45.0,77,60,41,29.82,29.74,3,0,6,0.00
2013-8-8,73.6,63.3,55.8,57.0,53.7,46.0,89,72,50,29.98,29.78,6,0,9,0.00
2013-8-9,78.4,63.3,51.4,53.0,48.7,44.0,83,62,30,30.01,29.92,7,0,15,0.00
2013-8-10,85.4,67.8,49.8,51.0,46.0,38.0,86,51,19,30.01,29.85,7,0,24,0.00
2013-8-11,80.9,70.0,57.7,53.0,47.4,42.0,76,47,27,29.93,29.85,5,0,12,0.00
2013-8-12,78.6,65.8,54.9,57.0,50.6,47.0,90,61,34,30.03,29.85,7,1,14,0.00
2013-8-13,77.2,64.9,51.3,54.0,49.9,45.0,92,62,35,30.02,29.90,12,1,19,0.00
2013-8-14,80.9,65.6,52.0,61.0,49.6,42.0,89,60,25,29.99,29.84,6,0,8,0.00
2013-8-15,83.7,68.1,51.7,51.0,45.8,37.0,77,49,19,29.93,29.84,6,1,9,0.00
2013-8-16,89.5,71.5,52.3,52.0,43.4,28.0,83,45,11,29.92,29.82,4,0,7,0.00
2013-8-17,93.7,75.0,54.6,50.0,40.9,20.0,77,39,7,29.88,29.69,4,0,5,0.00
2013-8-18,92.5,75.5,57.6,56.0,45.0,32.0,80,39,13,29.81,29.70,8,0,15,0.00
2013-8-19,93.2,77.2,55.7,53.0,43.9,33.0,76,36,13,29.80,29.69,3,0,8,0.00
2013-8-20,95.3,80.1,59.6,51.0,39.3,17.0,64,28,6,29.72,29.59,5,0,13,0.00
2013-8-21,88.1,74.8,63.5,55.0,48.5,44.0,66,42,23,29.80,29.67,3,0,10,0.00
2013-8-22,82.2,68.6,59.1,62.0,56.3,52.0,88,67,43,29.93,29.79,15,1,25,0.00
2013-8-23,86.2,69.6,60.1,59.0,55.1,47.0,88,64,28,29.94,29.69,10,1,15,0.00
2013-8-24,82.5,69.0,54.4,56.0,53.2,49.0,91,61,31,29.84,29.73,6,0,13,0.00
2013-8-25,86.5,72.9,61.1,56.0,51.9,46.0,73,51,25,29.85,29.76,7,0,16,0.00
2013-8-26,89.7,74.3,59.0,59.0,53.9,49.0,84,53,25,29.84,29.75,8,1,14,0.00
2013-8-27,89.1,75.0,59.3,59.0,55.0,51.0,84,53,27,29.82,29.68,5,0,9,0.00
2013-8-28,91.0,75.6,58.5,58.0,52.3,44.0,86,50,20,29.80,29.72,4,0,6,0.00
2013-8-29,91.5,75.8,58.4,56.0,49.4,44.0,77,44,20,29.86,29.77,5,1,17,0.00
2013-8-30,88.4,73.7,65.0,59.0,53.3,48.0,70,51,26,29.84,29.77,7,0,20,0.00
2013-8-31,88.1,74.9,63.1,56.0,50.0,44.0,69,44,21,29.80,29.73,13,1,18,0.00
2013-9-1,76.3,68.9,63.0,59.0,55.4,48.0,77,63,44,29.90,29.79,4,0,7,0.00
2013-9-2,89.4,71.9,54.8,57.0,52.0,41.0,88,55,18,29.90,29.74,2,0,7,0.00
2013-9-3,91.3,77.2,63.9,55.0,50.8,46.0,69,43,22,29.80,29.69,6,1,10,0.00
2013-9-4,89.3,75.8,65.9,58.0,52.7,49.0,71,47,26,29.85,29.77,1,0,6,0.00
2013-9-5,91.1,74.9,60.7,55.0,50.8,47.0,68,46,22,29.90,29.77,6,0,8,0.00
2013-9-6,92.9,75.9,59.4,55.0,48.3,36.0,76,43,14,29.84,29.70,5,0,10,0.00
2013-9-7,92.1,74.2,57.3,54.0,46.9,33.0,81,45,13,29.80,29.68,4,0,9,0.00
2013-9-8,87.1,71.3,55.5,53.0,49.2,45.0,80,50,24,29.72,29.56,5,0,10,0.00
2013-9-9,81.8,65.6,56.6,59.0,53.6,50.0,92,68,34,29.83,29.55,13,1,25,0.00
2013-9-10,64.9,60.0,58.0,59.0,57.7,56.0,95,92,78,30.01,29.80,4,0,9,0.00
2013-9-11,67.8,61.3,58.9,61.0,59.3,58.0,96,93,77,30.02,29.96,6,0,9,0.00
2013-9-12,62.3,59.9,58.0,61.0,58.4,56.0,96,94,91,30.07,29.98,6,1,11,0.00
2013-9-13,75.5,62.7,57.2,62.0,57.8,53.0,97,86,54,29.99,29.68,9,0,12,0.00
2013-9-14,72.7,62.5,57.7,59.0,56.3,52.0,94,81,51,29.82,29.64,7,0,13,0.00
2013-9-15,60.0,57.0,54.4,55.0,54.2,53.0,95,90,79,30.11,29.82,6,0,11,0.00
2013-9-16,73.4,61.1,54.0,58.0,54.4,53.0,95,81,53,30.09,29.86,4,0,6,0.00
2013-9-17,82.1,66.9,50.3,53.0,44.9,35.0,90,51,19,29.87,29.58,2,0,5,0.00
2013-9-18,81.7,68.7,55.2,52.0,45.4,40.0,76,46,26,29.64,29.49,9,1,20,0.00
2013-9-19,66.6,59.3,49.4,46.0,42.3,33.0,81,54,38,30.00,29.63,6,0,8,0.00
2013-9-20,71.2,57.8,46.6,47.0,44.4,41.0,87,64,35,30.03,29.87,3,0,6,0.00
2013-9-21,81.1,63.9,44.8,47.0,42.3,36.0,88,52,20,29.88,29.59,2,0,7,0.00
2013-9-22,78.0,62.4,50.1,51.0,45.4,40.0,89,56,31,29.59,29.35,5,0,17,0.00
2013-9-23,65.2,57.1,48.6,51.0,36.8,28.0,93,52,27,29.91,29.34,13,3,25,0.00
2013-9-24,74.7,57.7,41.5,41.0,33.9,26.0,69,45,19,30.02,29.70,2,0,5,0.00
2013-9-25,83.2,61.6,40.3,43.0,34.4,23.0,81,45,11,29.69,29.28,7,1,14,0.00
2013-9-26,66.2,55.8,43.1,47.0,42.5,37.0,87,62,47,29.58,29.34,6,1,10,0.00
2013-9-27,52.0,46.5,40.0,49.0,44.3,39.0,94,92,87,29.97,29.58,4,1,7,0.00
2013-9-28,66.6,49.0,34.0,40.0,33.3,24.0,95,62,24,30.13,29.97,5,0,6,0.00
2013-9-29,74.6,55.6,37.7,46.0,34.6,24.0,87,52,16,30.05,29.77,3,0,8,0.00
2013-9-30,79.8,63.2,51.7,49.0,38.9,33.0,62,44,20,29.79,29.57,4,0,8,0.00
2013-10-1,73.9,58.3,43.2,45.0,40.1,33.0,80,54,30,29.89,29.69,7,1,9,0.00
2013-10-2,75.1,58.6,42.4,45.0,40.0,31.0,90,57,20,29.83,29.70,4,0,9,0.00
2013-10-3,60.5,51.1,39.4,47.0,41.4,37.0,92,71,50,29.74,29.59,5,1,9,0.00
2013-10-4,48.0,37.2,30.1,46.0,33.4,27.0,93,86,66,30.22,29.64,10,1,13,0.00
2013-10-5,58.7,43.2,26.9,31.0,18.2,5.0,91,48,14,30.32,30.19,7,1,14,0.00
2013-10-6,67.3,48.2,31.2,40.0,28.5,20.0,80,52,22,30.24,30.14,3,0,6,0.00
2013-10-7,77.2,56.0,35.2,39.0,30.5,13.0,85,46,9,30.14,29.78,3,0,7,0.00
2013-10-8,76.5,59.1,45.4,43.0,33.8,20.0,71,44,12,29.77,29.54,3,0,9,0.00
2013-10-9,61.9,52.1,41.3,43.0,39.4,36.0,86,64,43,29.86,29.63,8,0,8,0.00
2013-10-10,58.7,49.1,41.4,47.0,41.1,34.0,92,75,48,29.85,29.44,5,0,22,0.00
2013-10-11,59.5,52.0,39.1,39.0,30.7,23.0,90,48,28,29.93,29.40,16,1,34,0.00
2013-10-12,56.1,46.7,36.4,41.0,38.3,33.0,91,74,52,30.12,29.93,4,1,8,0.00
2013-10-13,60.0,46.9,34.1,44.0,38.5,32.0,94,74,51,30.11,29.81,4,0,5,0.00
2013-10-14,55.9,46.4,39.4,43.0,37.5,32.0,90,72,41,30.13,29.73,8,1,18,0.00
2013-10-15,39.6,37.0,33.4,32.0,26.6,23.0,85,66,61,30.31,30.14,2,0,7,0.00
2013-10-16,52.4,38.8,27.2,31.0,27.3,24.0,91,67,35,30.26,30.04,2,0,6,0.00
2013-10-17,48.3,40.3,31.2,31.0,28.3,23.0,83,63,49,30.16,30.04,5,0,8,0.00
2013-10-18,42.7,35.7,30.5,34.0,29.2,26.0,93,78,58,30.23,30.04,7,0,8,0.00
2013-10-19,63.3,46.0,28.6,28.0,22.4,16.0,82,46,17,30.19,29.88,9,1,21,0.00
2013-10-20,55.3,42.7,32.0,35.0,29.7,19.0,92,64,24,30.11,29.81,6,0,13,0.00
2013-10-21,57.3,41.0,27.8,36.0,29.2,23.0,94,69,27,30.26,30.11,3,0,10,0.00
2013-10-22,63.2,50.2,33.3,35.0,29.2,22.0,84,48,26,30.18,30.04,7,0,13,0.00
2013-10-23,63.6,47.8,33.5,37.0,31.4,27.0,86,58,28,30.15,30.05,3,0,8,0.00
2013-10-24,55.0,43.9,31.6,37.0,34.7,29.0,88,71,51,30.24,30.15,2,0,6,0.00
2013-10-25,67.5,48.8,30.9,37.0,32.1,28.0,94,60,23,30.22,30.06,5,0,9,0.00
2013-10-26,61.2,48.8,35.5,36.0,32.4,29.0,82,56,30,30.26,30.06,2,0,5,0.00
2013-10-27,68.6,51.0,37.2,32.0,26.1,15.0,70,44,13,30.06,29.75,6,1,12,0.00
2013-10-28,44.6,36.4,32.4,33.0,31.0,26.0,93,82,49,30.08,29.76,4,0,10,0.00
2013-10-29,38.2,35.0,32.1,34.0,31.6,30.0,94,87,78,30.08,29.90,1,0,4,0.00
2013-10-30,49.8,38.1,32.1,37.0,32.4,22.0,95,81,45,29.95,29.83,6,0,10,0.00
2013-10-31,51.3,44.6,28.4,26.0,19.6,15.0,81,39,24,29.88,29.81,20,4,28,0.00
2013-11-1,50.8,43.5,34.3,31.0,24.1,18.0,71,48,27,30.18,29.86,16,2,24,0.00
2013-11-2,64.5,43.6,26.3,29.0,21.2,16.0,74,47,16,30.22,29.73,4,0,6,0.00
2013-11-3,67.9,51.5,36.1,29.0,16.6,4.0,72,30,8,29.73,29.44,12,1,15,0.00
2013-11-4,41.6,35.3,28.3,30.0,20.2,14.0,82,56,34,29.98,29.72,6,1,11,0.00
2013-11-5,42.3,33.7,26.1,24.0,15.2,1.0,72,49,20,30.25,29.95,9,1,13,0.00
2013-11-6,52.1,40.2,26.1,15.0,11.1,-2.0,52,31,20,30.38,30.21,11,2,22,0.00
2013-11-7,57.2,42.1,28.4,25.0,19.9,15.0,64,43,24,30.41,30.00,4,1,8,0.00
2013-11-8,65.3,49.4,32.2,25.0,20.1,13.0,69,36,14,30.00,29.76,15,1,20,0.00
2013-11-9,64.8,48.9,36.4,32.0,24.6,17.0,67,42,16,30.18,29.94,5,0,9,0.00
2013-11-10,66.1,47.0,29.3,27.0,23.1,15.0,83,46,14,30.21,30.09,3,0,7,0.00
2013-11-11,67.1,41.7,31.1,30.0,23.9,11.0,86,56,11,30.65,30.16,10,1,15,0.00
2013-11-12,60.2,42.3,30.1,29.0,26.6,23.0,86,59,24,30.66,30.38,3,0,8,0.00
2013-11-13,68.1,50.4,29.1,24.0,13.3,-2.0,77,30,6,30.38,29.93,8,1,12,0.00
2013-11-14,58.2,49.2,35.5,32.0,25.7,16.0,58,41,25,29.96,29.67,10,1,20,0.00
2013-11-15,63.0,47.2,28.3,25.0,16.3,8.0,64,34,12,29.66,29.39,10,2,18,0.00
2013-11-16,58.5,44.6,30.6,32.0,20.5,10.0,82,44,15,29.50,29.22,13,2,25,0.00
2013-11-17,55.1,43.3,33.6,25.0,17.1,12.0,62,37,18,30.06,29.50,10,2,19,0.00
2013-11-18,65.1,43.4,26.3,19.0,13.7,2.0,71,37,9,30.15,30.00,5,0,8,0.00
2013-11-19,60.4,44.0,29.1,26.0,18.8,11.0,64,40,15,30.01,29.70,4,0,6,0.00
2013-11-20,57.6,47.0,30.0,27.0,23.9,20.0,80,43,24,29.96,29.67,12,1,19,0.00
2013-11-21,28.6,17.6,13.9,24.0,13.2,8.0,87,82,78,30.84,29.96,4,1,11,0.00
2013-11-22,33.8,26.2,16.5,20.0,15.5,9.0,81,65,45,30.83,30.71,4,0,7,0.00
2013-11-23,33.0,27.7,24.5,21.0,17.4,12.0,82,66,54,30.78,30.46,4,0,8,0.00
2013-11-24,39.7,29.4,21.2,27.0,22.4,17.0,88,76,40,30.45,30.11,4,0,11,0.00
2013-11-25,40.8,36.2,26.3,27.0,22.0,13.0,81,58,32,30.37,30.16,8,1,15,0.00
2013-11-26,48.7,35.3,23.9,26.0,19.5,16.0,85,57,28,30.51,30.32,6,0,8,0.00
2013-11-27,62.5,42.1,25.7,21.0,17.3,12.0,68,42,14,30.31,30.05,4,0,8,0.00
2013-11-28,46.8,34.7,25.2,25.0,22.4,19.0,82,63,40,30.23,30.14,3,0,7,0.00
2013-11-29,61.6,43.0,26.0,23.0,17.7,11.0,83,44,14,30.21,30.11,7,1,12,0.00
2013-11-30,58.5,43.9,30.3,17.0,12.2,6.0,55,30,13,30.17,30.06,7,1,11,0.00
2013-12-1,56.4,44.5,27.2,25.0,16.6,11.0,59,35,18,30.14,29.85,9,1,16,0.00
2013-12-2,58.2,52.0,43.9,24.0,19.5,16.0,42,28,20,29.85,29.43,16,4,24,0.00
2013-12-3,56.1,37.2,12.8,27.0,17.2,9.0,84,49,24,29.75,29.31,13,3,19,0.00
2013-12-4,12.2,7.4,-2.0,7.0,2.6,-7.0,83,80,74,30.42,29.76,7,1,8,0.00
2013-12-5,6.3,-0.1,-7.8,-1.0,-5.7,-12.0,85,77,67,30.59,30.41,4,0,7,0.00
2013-12-6,9.5,1.1,-6.3,0.0,-4.5,-11.0,84,77,63,30.68,30.57,3,0,5,0.00
2013-12-7,9.1,1.5,-5.1,2.0,-3.6,-10.0,84,79,71,30.65,30.22,3,0,5,0.00
2013-12-8,20.6,9.4,-0.1,9.0,3.3,-4.0,85,77,62,30.37,30.13,4,0,7,0.00
2013-12-9,26.8,14.3,-1.0,3.0,-2.9,-10.0,83,52,20,30.45,30.33,9,2,25,0.00
2013-12-10,46.7,31.1,12.3,15.0,7.6,-2.0,65,39,23,30.43,30.07,12,2,19,0.01
2013-12-11,36.0,23.0,10.3,18.0,13.0,6.0,86,67,42,30.52,30.36,5,0,7,0.00
2013-12-12,57.5,32.1,15.6,22.0,12.8,7.0,76,52,13,30.50,30.04,3,0,5,0.00
2013-12-13,49.0,31.9,18.4,20.0,14.2,7.0,78,53,18,30.26,29.92,7,1,12,0.00
2013-12-14,44.8,32.9,19.5,20.0,14.2,9.0,80,50,24,30.38,30.26,16,2,17,0.00
2013-12-15,55.1,47.5,31.8,19.0,14.1,6.0,54,28,15,30.25,30.05,19,4,30,0.00
2013-12-16,62.6,52.3,33.7,17.0,9.9,-2.0,46,20,8,30.14,29.98,18,3,21,0.00
2013-12-17,62.6,45.3,27.9,16.0,12.8,6.0,58,31,13,30.30,30.04,7,1,21,0.00
2013-12-18,64.9,48.3,35.2,18.0,12.7,2.0,46,28,8,30.03,29.64,8,1,9,0.00
2013-12-19,45.8,33.9,16.9,24.0,19.4,14.0,88,58,38,29.92,29.49,7,2,14,0.00
2013-12-20,24.6,20.4,16.6,19.0,16.8,14.0,89,86,79,29.94,29.83,6,0,6,0.00
2013-12-21,31.3,21.8,13.0,22.0,17.0,10.0,90,82,62,30.09,29.76,5,1,10,0.00
2013-12-22,41.1,26.6,14.8,19.0,13.0,7.0,90,62,25,30.39,30.10,12,1,16,0.00
2013-12-23,47.4,32.1,19.5,22.0,19.1,17.0,88,63,34,30.43,30.21,12,1,21,0.00
2013-12-24,53.4,41.8,26.9,26.0,16.0,4.0,51,36,24,30.26,29.95,17,4,34,0.00
2013-12-25,45.5,30.6,17.4,11.0,6.4,1.0,70,40,16,30.50,30.26,5,1,8,0.00
2013-12-26,53.8,42.6,29.4,15.0,7.9,-9.0,48,26,9,30.35,30.23,16,2,21,0.00
2013-12-27,59.0,39.9,27.3,19.0,16.9,14.0,63,43,18,30.32,30.06,3,0,5,0.00
2013-12-28,57.6,36.3,21.5,27.0,20.3,16.0,89,57,20,30.28,29.86,9,2,18,0.00
2013-12-29,42.5,25.5,13.3,19.0,14.9,10.0,88,67,28,30.34,30.08,12,1,20,0.00
2013-12-30,47.5,38.9,29.5,15.0,12.2,6.0,51,35,19,30.30,30.11,13,3,24,0.00
2013-12-31,56.4,43.0,28.2,21.0,16.5,12.0,56,36,22,30.12,29.89,15,2,26,0.00
2014-1-1,46.7,34.1,22.6,30.0,24.1,18.0,88,69,35,30.34,29.85,15,3,21,0.00
2014-1-2,46.6,30.3,17.0,22.0,17.6,12.0,84,63,26,30.43,30.14,4,1,8,0.00